Regional Weather Roundup
Issued by NWS

Home | Current Version | Previous Version | Graphics & Text | Print | Product List | Glossary On
Versions: 1 2 3 4 5 6 7 8 9 10 11 12 13 14 15 16 17 18 19 20 21 22 23 24 25 26 27 28 29 30 31 32 33 34 35 36 37 38 39 40 41 42 43 44 45 46 47 48 49 50
000
ASUS43 KIND 282000
RWRIN

WEATHER ROUNDUP FOR INDIANA
NATIONAL WEATHER SERVICE INDIANAPOLIS IN
400 PM EDT WED JUN 28 2017

NOTE: "FAIR" INDICATES FEW OR NO CLOUDS BELOW 12,000 FEET WITH NO
SIGNIFICANT WEATHER AND/OR OBSTRUCTIONS TO VISIBILITY.

* - STATION DOES NOT REPORT WEATHER SUCH AS PRECIPITATION OR FOG.

+ - STATION NOT QUALITY CONTROLLED BY THE NATIONAL WEATHER SERVICE.
    USE DATA WITH CAUTION...ESPECIALLY DEWPOINT AND RELATIVE
    HUMIDITY OBSERVATIONS.

INZ001>003-010>013-019-020-282100-
NORTHWEST INDIANA

CITY           SKY/WX    TMP DP  RH WIND       PRES   REMARKS
GARY /AIRPORT/ CLOUDY    79  55  44 S17G33    29.89F
KNOX *+        CLOUDY    77  45  31 S13G20    29.94F
MICHIGAN CITY+ CLOUDY    75  55  50 S13G24    29.92F
MONTICELLO +   CLOUDY    78  56  47 S10G21    29.96F
RENSSELAER +   CLOUDY    81  48  32 S20G28    29.94F

$$

LMZ046-743>745-282100-
SOUTHERN LAKE MICHIGAN

STATION/POSITION TIME  TEMP    WIND        PRES    WAVE
                       AIR SEA DIR/SP/G            HT
                 (UTC) (F)     (DEG/KT/KT) (MB)    (FT)
BURNS HARBOR     1940   77     180/ 20/ 27 1012.5F
MICHIGAN CITY    1930   74     170/ 16/ 22   N/A
5NW MICH CITY    1950   73 66  170/ 19/ 29   N/A     2

$$

INZ004-005-014>016-021>024-282100-
NORTH CENTRAL INDIANA

CITY           SKY/WX    TMP DP  RH WIND       PRES   REMARKS
ELKHART        CLOUDY    75  54  46 S13G22    29.95F
GOSHEN         CLOUDY    77  52  41 S20G31    29.97F
SOUTH BEND     CLOUDY    75  56  51 S17G29    29.94F

$$

INZ006>009-017-018-025>027-282100-
NORTHEAST INDIANA

CITY           SKY/WX    TMP DP  RH WIND       PRES   REMARKS
ANGOLA *+      MOSUNNY   75  70  83 S9        30.02F
FORT WAYNE     CLOUDY    78  52  40 SW14      30.04F
KENDALLVILLE + CLOUDY    74  51  44 S9        30.03F

$$

INZ028-029-035-036-043>045-051>053-282100-
WEST CENTRAL INDIANA

CITY           SKY/WX    TMP DP  RH WIND       PRES   REMARKS
CRAWFORDSVL +  MOSUNNY   78  57  49 S14       30.00F
GREENCASTLE +  PTSUNNY   79  57  47 S7        30.03F
LAFAYETTE      MOSUNNY   79  58  48 S13G23    29.96F
TERRE HAUTE    MOSUNNY   83  57  41 S17G24    29.99F

$$

INZ030>032-037>040-046>048-054>057-064-065-282100-
CENTRAL INDIANA

CITY           SKY/WX    TMP DP  RH WIND       PRES   REMARKS
ANDERSON       SUNNY     81  54  39 MISG        N/A
COLUMBUS       MOSUNNY   81  41  24 SW12      30.06F
GREENWOOD *+   MOSUNNY   80  50  35 S10G17    30.05F
INDIANAPOLIS   CLOUDY    79  56  45 S14G22    30.03F
-EAGLE CREEK   MOSUNNY   80  54  40 S10G17    30.03F
KOKOMO +       PTSUNNY   78  55  44 S12       30.02F
MT COMFORT *+  PTSUNNY   77  54  44 S13G18    30.06F
SHELBYVILLE    PTSUNNY   82  52  35 S17G23    30.04F

$$

INZ033-034-041-042-049-050-058-059-282100-
EAST CENTRAL INDIANA

CITY           SKY/WX    TMP DP  RH WIND       PRES   REMARKS
MUNCIE         MOSUNNY   79  52  38 S9G17     30.04F
RICHMOND +     CLOUDY    77  52  41 S15       30.10F

$$

INZ060-061-067>069-081>083-085>088-282100-
SOUTHWEST INDIANA

CITY           SKY/WX    TMP DP  RH WIND       PRES   REMARKS
EVANSVILLE     CLOUDY    83  59  44 S12G18    30.03F
HUNTINGBURG *+ CLOUDY    81  59  47 S8        30.04F

$$

INZ062-063-066-070>080-084-089>092-282100-
SOUTH CENTRAL AND SOUTHEAST INDIANA

CITY           SKY/WX    TMP DP  RH WIND       PRES   REMARKS
BLOOMINGTON    MOSUNNY   81  55  40 S13G20    30.04F
MADISON *+     SUNNY     82  45  26 S7        30.10F
SEYMOUR +      CLOUDY    82  55  39 S9        30.06

$$





USA.gov is the U.S. government's official web portal to all federal, state and local government web resources and services.